UEEEUHBB

Guest
Details From UEEE - Yakutsk
To UHBB - IGNATYEVO
Flight Number -
Tags generated
Created
Modified
Stats Distance 728 nm / 1,349 km
Max Altitude 35,000 ft / 10,668 m
Waypoints 13
Social Downloads 0
Likes 0
Share VATSIM

Download

Looking for another format? Having issues loading an existing format? Contact us
Advertisement - Login to hide

Notes

Basic altitude profile: - Ascent Rate: 2500ft/min - Ascent Speed: 250kts - Cruise Altitude: 35000ft - Cruise Speed: 420kts - Descent Rate: 1500ft/min - Descent Speed: 250kts Options: - Use NATs: no - Use PACOTS: no - Use low airways: yes - Use high airways: no

Route

UEEE G493 OMOSA R22 ARKOD G494 NINON UHBB

ID Type Via Altitude Latitude Longitude Leg Dist Tot Dist Heading (true) Name
O UEEE APT - 0 ft / 0 m 62.09325˚ 129.77068˚ - 0 nm - Yakutsk
ABDAD FIX G493 (AWY-LO) 34,000 ft / 10,363 m 60.20222˚ 128.72111˚ 117 nm 117 nm 195° / 195° -
BEDNA FIX G493 (AWY-LO) 34,000 ft / 10,363 m 57.99889˚ 127.70278˚ 135 nm 253 nm 194° / 193° -
PESAD FIX G493 (AWY-LO) 34,000 ft / 10,363 m 56.93722˚ 127.21444˚ 65 nm 319 nm 194° / 194° -
TUNAK FIX G493 (AWY-LO) 34,000 ft / 10,363 m 56.45056˚ 127.00111˚ 30 nm 349 nm 194° / 193° -
GONID FIX G493 (AWY-LO) 34,000 ft / 10,363 m 55.91000˚ 126.76667˚ 33 nm 382 nm 194° / 193° -
OMOSA FIX G493 (AWY-LO) 34,000 ft / 10,363 m 55.60056˚ 126.63778˚ 19 nm 401 nm 193° / 193° -
ARKOD FIX R22 (AWY-LO) 35,000 ft / 10,668 m 55.32556˚ 127.34778˚ 29 nm 431 nm 124° / 125° -
LALIR FIX G494 (AWY-LO) 34,000 ft / 10,363 m 54.81056˚ 127.26444˚ 31 nm 462 nm 185° / 185° -
NALEB FIX G494 (AWY-LO) 34,000 ft / 10,363 m 53.69222˚ 127.08944˚ 67 nm 529 nm 185° / 185° -
SOVIK FIX G494 (AWY-LO) 29,300 ft / 8,931 m 52.68194˚ 127.43944˚ 61 nm 591 nm 168° / 168° -
NINON FIX G494 (AWY-LO) 19,300 ft / 5,883 m 52.00028˚ 127.66750˚ 41 nm 633 nm 168° / 169° -
O UHBB APT - 0 ft / 0 m 50.42539˚ 127.41249˚ 95 nm 728 nm 186° / 186° IGNATYEVO

Altitude Profile

Advertisement - Login to hide

Weather


0- 5 10 15 20 25 30 35+ Temperature / ° C

Clouds and Precipitation
Forecast for 2017-12-16 18:00 UTC. Updated 10 minutes ago

Ground ~20,000 ft ~40,000 ft Winds

UEEE

Details ICAO UEEE (YKS)
Name Yakutsk
Region Russia
Timezone Asia/Yakutsk (UTC+9.0)
Stats Elevation 325 ft / 99 m (AMSL)
Location 62.093249° 129.770678°
Runways 2
Magnetic Variation 15.673° W

METAR

UEEE 161330Z 05001MPS 3200 -SN BR NSC M39/M44 Q1022 R23L/490150 NOSIG RMK QFE757

Decode

TAF

TAF UEEE 161100Z 1612/1718 27003MPS 0300 FG VV003 TXM37/1706Z TNM42/1623Z TEMPO 1612/1624 1200 -SN BR OVC070

Decode

Departure Runways

ID Width Length Bearing (true) Bearing (mag) Surface Threshold Offset Overrun Length
05L 161 ft / 49 m 8,171 ft / 2,491 m 29.51° 45.18° Concrete 0 ft / 0 m 154 ft / 47 m
05R 197 ft / 60 m 11,120 ft / 3,389 m 36.88° 52.55° Asphalt 0 ft / 0 m 226 ft / 69 m
23L 197 ft / 60 m 11,120 ft / 3,389 m 216.92° 232.59° Asphalt 0 ft / 0 m 226 ft / 69 m
23R 161 ft / 49 m 8,171 ft / 2,491 m 209.53° 225.20° Concrete 3,399 ft / 1,036 m 164 ft / 50 m

UHBB

Details ICAO UHBB (BQS)
Name IGNATYEVO
Region Russia
Timezone Asia/Yakutsk (UTC+9.0)
Stats Elevation 638 ft / 194 m (AMSL)
Location 50.425395° 127.412489°
Runways 1
Magnetic Variation 12.263° W

METAR

UHBB 161300Z 25002MPS CAVOK M20/M25 Q1018 R36/450250 NOSIG RMK QFE746/0995

Decode

TAF

TAF UHBB 161040Z 1612/1712 31003MPS CAVOK= TAF UHSS 161100Z 1612/1718 36008MPS 3100 -SHSN BKN020CB OVC100 TEMPO 1612/1619 1000 SHSN BLSN BKN004 OVC015CB BECMG 1619/1622 9999 NSW BKN025CB BECMG 1704/1706 32004MPS

Decode

Destination Runways

ID Width Length Bearing (true) Bearing (mag) Surface Threshold Offset Overrun Length
18 148 ft / 45 m 9,254 ft / 2,821 m 168.30° 180.56° Asphalt 0 ft / 0 m 145 ft / 44 m
36 148 ft / 45 m 9,254 ft / 2,821 m 348.30° 0.56° Asphalt 0 ft / 0 m 160 ft / 49 m

Approach Navaids

Runway Type Ident Frequency Range Bearing (true) Bearing (mag) Slope Elevation
36 Localiser ILZ 108.70 MHz 18 nm / 33 km 348.31° 0.57° - 638 ft / 194 m (AMSL)
36 Glidescope ILZ 108.70 MHz 10 nm / 19 km 348.30° 0.56° 3.05° 638 ft / 194 m (AMSL)

Popular Alternatives